EW5925 Weather Reports


time (UTC)temp
C
wind
direction
speed
KPH
gust
KPH
rain 1hr
cm
rain 24hr
cm
rain mn
cm
humidity
%
barometer
mb
20260506050500 24 135 6.4 17.7 0.00 0.00 0.00 74 1015.6
20260506045001 25 122 8.0 19.3 0.00 0.00 0.00 74 1015.6
20260506044445 25 120 6.4 20.9 0.00 0.00 0.00 74 1015.6
20260506043946 25 108 6.4 14.5 0.00 0.00 0.00 74 1015.6
20260506043419 25 122 6.4 16.1 0.00 0.00 0.00 74 1015.6
20260506042920 25 117 6.4 16.1 0.00 0.00 0.00 73 1015.6
20260506042419 25 130 6.4 20.9 0.00 0.00 0.00 74 1015.6
20260506041915 25 109 8.0 20.9 0.00 0.00 0.00 73 1015.6
20260506041415 25 164 8.0 14.5 0.00 0.00 0.00 74 1015.6
20260506040928 24 119 8.0 17.7 0.00 0.00 0.00 75 1015.6
20260506040414 24 199 9.7 17.7 0.00 0.00 0.00 75 1015.7
20260506035911 24 123 9.7 17.7 0.00 0.00 0.00 75 1015.7
20260506035411 24 86 9.7 17.7 0.00 0.00 0.00 75 1015.8
20260506034907 24 130 9.7 17.7 0.00 0.00 0.00 73 1015.7
20260506034406 24 124 6.4 17.7 0.00 0.00 0.00 74 1015.8
20260506033904 25 122 4.8 12.9 0.00 0.00 0.00 73 1015.8
20260506033404 25 146 4.8 12.9 0.00 0.00 0.00 73 1015.8
20260506032900 25 118 4.8 12.9 0.00 0.00 0.00 73 1015.9
20260506032403 25 124 4.8 12.9 0.00 0.00 0.00 73 1015.9
20260506031854 25 118 6.4 12.9 0.00 0.00 0.00 73 1016.0
20260506031351 25 128 6.4 17.7 0.00 0.00 0.00 72 1016.0
20260506030850 25 137 6.4 17.7 0.00 0.00 0.00 71 1016.0
20260506030347 25 129 8.0 17.7 0.00 0.00 0.00 70 1016.0
20260506025846 25 161 6.4 17.7 0.00 0.00 0.00 69 1016.0
20260506025345 26 133 4.8 16.1 0.00 0.00 0.00 69 1016.0
20260506025102 26 112 4.8 14.5 0.00 0.00 0.00 69 1016.0
20260506024345 26 144 6.4 14.5 0.00 0.00 0.00 70 1016.0
20260506023835 26 141 8.0 19.3 0.00 0.00 0.00 70 1016.1
20260506023557 25 124 8.0 19.3 0.00 0.00 0.00 71 1016.1
20260506022834 25 132 6.4 14.5 0.00 0.00 0.00 73 1016.1
20260506022336 25 128 4.8 12.9 0.00 0.00 0.00 73 1016.2
20260506021807 24 137 8.0 17.7 0.00 0.00 0.00 73 1016.3
20260506021251 25 124 6.4 17.7 0.00 0.00 0.00 73 1016.5
20260506020754 25 123 4.8 12.9 0.00 0.00 0.00 73 1016.6
20260506020446 25 144 4.8 12.9 0.00 0.00 0.00 72 1016.7
20260506015659 25 108 4.8 14.5 0.00 0.00 0.00 73 1016.7
20260506015135 25 175 4.8 14.5 0.00 0.00 0.00 72 1016.8
20260506014607 25 125 6.4 14.5 0.00 0.00 0.00 71 1016.8
20260506014043 26 109 6.4 16.1 0.00 0.00 0.00 70 1016.9
20260506013523 26 126 4.8 16.1 0.00 0.00 0.00 70 1016.9
20260506013247 26 122 4.8 12.9 0.00 0.00 0.00 71 1016.8
20260506012456 25 119 4.8 11.3 0.00 0.00 0.00 71 1016.8
20260506011929 25 143 3.2 8.0 0.00 0.00 0.00 72 1017.0
20260506011401 25 129 3.2 22.5 0.00 0.00 0.00 72 1017.0
20260506011058 25 112 6.4 22.5 0.00 0.00 0.00 72 1017.1
20260506010307 25 126 8.0 22.5 0.00 0.00 0.00 72 1017.2
20260506005741 25 112 6.4 16.1 0.00 0.00 0.00 73 1017.2
20260506005446 25 99 4.8 14.5 0.00 0.00 0.00 72 1017.3
20260506004655 25 93 4.8 12.9 0.00 0.00 0.00 72 1017.5
20260506004129 25 112 4.8 16.1 0.00 0.00 0.00 72 1017.4
20260506003604 25 139 4.8 16.1 0.00 0.00 0.00 72 1017.4
20260506003040 25 108 6.4 16.1 0.00 0.00 0.00 71 1017.4
20260506002517 25 224 4.8 16.1 0.00 0.00 0.00 72 1017.5
20260506001951 25 114 4.8 14.5 0.00 0.00 0.00 74 1017.5
20260506001647 25 138 4.8 14.5 0.00 0.00 0.00 74 1017.5
20260506000859 25 139 6.4 14.5 0.00 0.00 0.00 74 1017.5
20260506000332 25 107 4.8 14.5 0.00 0.00 0.00 75 1017.5
20260505235821 25 196 4.8 12.9 0.00 0.00 0.00 77 1017.6
20260505235542 25 195 3.2 9.7 0.00 0.00 0.00 78 1017.6
20260505234822 24 113 4.8 12.9 0.00 0.00 0.00 79 1017.7
20260505234541 24 204 4.8 12.9 0.00 0.00 0.00 79 1017.7
20260505234039 24 190 4.8 12.9 0.00 0.00 0.00 80 1017.8
20260505233317 23 116 4.8 12.9 0.00 0.00 0.00 80 1017.8
20260505232814 23 130 4.8 12.9 0.00 0.00 0.00 80 1017.9
20260505232315 23 110 6.4 12.9 0.00 0.00 0.00 80 1017.9
20260505231812 23 126 4.8 12.9 0.00 0.00 0.00 81 1017.8
20260505231313 23 108 3.2 12.9 0.00 0.00 0.00 83 1017.9
20260505230813 23 152 3.2 12.9 0.00 0.00 0.00 84 1017.9
20260505230307 23 113 3.2 12.9 0.00 0.00 0.00 85 1017.9
20260505225804 22 203 3.2 9.7 0.00 0.00 0.00 87 1017.9
20260505225306 22 195 4.8 9.7 0.00 0.00 0.00 88 1017.9
20260505224805 22 191 4.8 9.7 0.00 0.00 0.00 89 1018.0
20260505224304 21 212 4.8 9.7 0.00 0.00 0.00 91 1017.9
20260505223817 21 204 4.8 8.0 0.00 0.00 0.00 92 1018.0
20260505223306 21 217 4.8 8.0 0.00 0.00 0.00 93 1018.0
20260505222803 21 233 3.2 8.0 0.00 0.00 0.00 93 1017.9
20260505222527 20 261 3.2 8.0 0.00 0.00 0.00 94 1017.9
20260505221805 20 180 3.2 8.0 0.00 0.00 0.00 94 1017.8
20260505221235 20 180 3.2 9.7 0.00 0.00 0.00 94 1017.8
20260505220713 20 228 3.2 8.0 0.00 0.00 0.00 94 1017.9
20260505220217 20 221 3.2 8.0 0.00 0.00 0.00 95 1017.9
20260505215645 20 238 1.6 8.0 0.00 0.00 0.00 94 1017.8
20260505215150 20 206 1.6 6.4 0.00 0.00 0.00 94 1017.8
20260505214637 19 206 3.2 8.0 0.00 0.00 0.00 95 1017.8
20260505214133 19 201 1.6 8.0 0.00 0.00 0.00 94 1017.8
20260505213633 19 212 1.6 6.4 0.00 0.00 0.00 94 1017.7
20260505213353 19 212 1.6 6.4 0.00 0.00 0.00 95 1017.7
20260505212854 19 249 1.6 6.4 0.00 0.00 0.00 94 1017.6
20260505212357 18 249 1.6 6.4 0.00 0.00 0.00 94 1017.6
20260505211626 18 249 1.6 6.4 0.00 0.00 0.00 94 1017.6
20260505211127 18 249 1.6 4.8 0.00 0.00 0.00 94 1017.5
20260505210626 18 249 1.6 4.8 0.00 0.00 0.00 94 1017.3
20260505210127 18 249 1.6 4.8 0.00 0.00 0.00 94 1017.3
20260505205845 18 249 0.0 0.0 0.00 0.00 0.00 94 1017.3
20260505205122 18 249 0.0 0.0 0.00 0.00 0.00 94 1017.1
20260505204622 18 249 0.0 0.0 0.00 0.00 0.00 94 1017.1
20260505204121 18 249 0.0 0.0 0.00 0.00 0.00 94 1017.1
20260505203623 18 250 0.0 0.0 0.00 0.00 0.00 94 1016.9
20260505203106 18 249 0.0 0.0 0.00 0.00 0.00 94 1016.9
20260505202606 18 249 0.0 0.0 0.00 0.00 0.00 94 1016.9
20260505202100 18 249 0.0 0.0 0.00 0.00 0.00 94 1016.9
20260505201828 18 249 0.0 0.0 0.00 0.00 0.00 94 1016.8
20260505201059 18 250 0.0 0.0 0.00 0.00 0.00 94 1016.9
20260505200557 18 249 0.0 0.0 0.00 0.00 0.00 94 1016.8
20260505200109 18 249 0.0 3.2 0.00 0.00 0.00 94 1016.8
20260505195557 18 249 0.0 3.2 0.00 0.00 0.00 94 1016.7
20260505195055 18 249 0.0 3.2 0.00 0.00 0.00 94 1016.7
20260505194555 19 250 1.6 4.8 0.00 0.00 0.00 94 1016.6
20260505194058 19 249 0.0 4.8 0.00 0.00 0.00 94 1016.6
20260505193549 19 249 0.0 4.8 0.00 0.00 0.00 94 1016.6
20260505193050 19 249 0.0 4.8 0.00 0.00 0.00 94 1016.6
20260505192545 19 249 0.0 4.8 0.00 0.00 0.00 94 1016.6
20260505192050 19 249 0.0 4.8 0.00 0.00 0.00 94 1016.7
20260505191522 19 255 0.0 3.2 0.00 0.03 0.00 94 1016.6
20260505191022 19 239 0.0 0.0 0.00 0.03 0.00 94 1016.6
20260505190520 19 239 0.0 1.6 0.00 0.03 0.00 94 1016.6
20260505190247 19 239 0.0 1.6 0.00 0.03 0.00 94 1016.6
20260505185515 19 239 0.0 1.6 0.00 0.03 0.00 94 1016.6
20260505185014 19 239 0.0 3.2 0.00 0.03 0.00 94 1016.5
20260505184511 19 239 0.0 3.2 0.00 0.03 0.00 94 1016.5
20260505184011 19 239 0.0 4.8 0.00 0.03 0.00 94 1016.2
20260505183507 19 239 0.0 4.8 0.00 0.03 0.00 94 1016.2
20260505183021 19 239 0.0 3.2 0.00 0.03 0.00 94 1016.2
20260505182959 19 239 0.0 0.0 0.00 0.03 0.00 94 1016.2
20260505182006 19 239 0.0 0.0 0.00 0.03 0.00 94 1016.2
20260505181517 19 239 0.0 0.0 0.00 0.03 0.00 94 1016.1
20260505180958 19 239 0.0 0.0 0.00 0.03 0.00 94 1016.0
20260505180455 19 239 0.0 0.0 0.00 0.03 0.00 94 1016.0
20260505175955 19 239 0.0 1.6 0.00 0.03 0.00 94 1016.0
20260505175455 19 239 0.0 1.6 0.00 0.03 0.00 94 1016.1
20260505174935 19 239 0.0 0.0 0.00 0.03 0.00 94 1016.0
20260505174434 19 239 0.0 0.0 0.00 0.03 0.00 94 1016.1
20260505173912 19 239 0.0 0.0 0.00 0.03 0.00 93 1016.2
20260505173635 19 239 0.0 0.0 0.00 0.03 0.00 93 1016.2
20260505172907 19 239 0.0 3.2 0.00 0.03 0.00 93 1016.2
20260505172405 19 239 0.0 3.2 0.00 0.03 0.00 93 1016.2
20260505171902 19 239 0.0 3.2 0.00 0.03 0.00 93 1016.2
20260505171400 19 239 0.0 3.2 0.00 0.03 0.00 93 1016.3
20260505170911 19 239 0.0 0.0 0.00 0.03 0.00 93 1016.5
20260505170411 19 239 0.0 0.0 0.00 0.03 0.00 93 1016.6
20260505165854 19 239 0.0 6.4 0.00 0.03 0.00 93 1016.6
20260505165354 19 239 1.6 6.4 0.00 0.03 0.00 93 1016.6
20260505165110 19 239 1.6 6.4 0.00 0.03 0.00 93 1016.6
20260505164345 19 239 1.6 6.4 0.00 0.03 0.00 93 1016.6
20260505163842 19 175 0.0 0.0 0.00 0.03 0.00 93 1016.6
20260505163601 19 175 0.0 0.0 0.00 0.03 0.00 93 1016.5
20260505162829 19 175 0.0 0.0 0.00 0.03 0.00 93 1016.5
20260505162547 19 175 0.0 0.0 0.00 0.03 0.00 93 1016.6
20260505161800 19 175 0.0 0.0 0.00 0.03 0.00 93 1016.6
20260505161254 19 175 0.0 0.0 0.00 0.03 0.00 93 1016.7
20260505160752 19 175 0.0 3.2 0.00 0.03 0.00 93 1016.8
20260505160524 19 175 0.0 3.2 0.00 0.03 0.00 93 1016.8
20260505153234 20 175 0.0 1.6 0.00 0.03 0.00 93 1016.9
20260505152732 20 175 0.0 3.2 0.00 0.03 0.00 93 1017.1
20260505152231 20 175 0.0 3.2 0.00 0.03 0.00 93 1017.1
20260505151724 20 175 0.0 4.8 0.00 0.03 0.00 93 1017.1
20260505151222 20 175 1.6 4.8 0.00 0.03 0.00 93 1017.1
20260505150720 20 175 1.6 8.0 0.00 0.03 0.00 93 1017.0
20260505150449 20 160 1.6 8.0 0.00 0.03 0.00 94 1017.0
20260505140157 18 147 0.0 0.0 0.00 0.03 0.00 92 1017.5
20260505124952 19 147 0.0 0.0 0.00 0.03 0.03 91 1017.5
20260505124504 19 147 0.0 0.0 0.00 0.03 0.03 91 1017.4
20260505123950 19 147 0.0 0.0 0.00 0.03 0.03 91 1017.2
20260505123447 19 147 0.0 0.0 0.00 0.03 0.03 91 1017.4
20260505122945 19 147 0.0 0.0 0.00 0.03 0.03 91 1017.4
20260505122441 19 147 0.0 0.0 0.00 0.03 0.03 91 1017.4
20260505121939 19 147 0.0 0.0 0.00 0.03 0.03 91 1017.6
20260505121702 19 147 0.0 0.0 0.00 0.03 0.03 91 1017.6
20260505120938 19 147 0.0 0.0 0.00 0.03 0.03 91 1017.4
20260505120411 19 147 0.0 0.0 0.00 0.03 0.03 91 1017.4
20260505115904 19 147 0.0 0.0 0.00 0.03 0.03 91 1017.3
20260505115634 19 147 0.0 0.0 0.00 0.03 0.03 91 1017.4
20260505115127 19 147 0.0 0.0 0.00 0.03 0.03 90 1017.5
20260505114403 19 147 0.0 0.0 0.00 0.03 0.03 90 1017.6
20260505113904 19 147 0.0 0.0 0.00 0.03 0.03 90 1017.6
20260505113358 20 147 0.0 0.0 0.00 0.03 0.03 90 1017.6
20260505112858 20 147 0.0 0.0 0.00 0.03 0.03 90 1017.7
20260505112615 20 147 0.0 3.2 0.00 0.03 0.03 90 1017.7
20260505111854 20 147 0.0 3.2 0.00 0.03 0.03 90 1017.8
20260505111351 20 147 0.0 3.2 0.00 0.03 0.03 90 1017.7
20260505110854 20 147 0.0 0.0 0.00 0.03 0.03 90 1017.6
20260505110351 20 147 0.0 0.0 0.00 0.03 0.03 90 1017.7
20260505102125 20 147 0.0 3.2 0.00 0.03 0.03 89 1017.5
20260505101609 20 147 1.6 3.2 0.00 0.03 0.03 89 1017.3
20260505101111 20 147 0.0 3.2 0.00 0.03 0.03 88 1017.2
20260505100544 20 147 0.0 4.8 0.00 0.03 0.03 88 1017.2
20260505100030 20 147 0.0 4.8 0.00 0.03 0.03 88 1017.1
20260505095527 20 147 1.6 6.4 0.00 0.03 0.03 88 1017.0
20260505095000 20 147 0.0 6.4 0.00 0.03 0.03 87 1017.1
20260505094458 21 82 0.0 0.0 0.00 0.03 0.03 87 1017.2
20260505093958 21 82 0.0 0.0 0.00 0.03 0.03 86 1017.3
20260505093715 21 82 0.0 0.0 0.00 0.03 0.03 86 1017.3
20260505092954 21 82 0.0 0.0 0.00 0.03 0.03 86 1017.2
20260505092453 21 82 0.0 0.0 0.00 0.03 0.03 86 1017.1
20260505091950 21 82 0.0 0.0 0.00 0.03 0.03 86 1017.1
20260505091449 21 82 0.0 0.0 0.00 0.03 0.03 86 1017.0
20260505090952 21 82 0.0 0.0 0.00 0.03 0.03 85 1017.1
20260505090448 21 82 0.0 0.0 0.00 0.03 0.03 86 1017.0
20260505085946 21 82 0.0 0.0 0.00 0.03 0.03 85 1017.0
20260505085446 21 82 0.0 0.0 0.00 0.03 0.03 85 1016.9
20260505084940 21 82 0.0 0.0 0.00 0.03 0.03 85 1016.9
20260505084658 21 82 0.0 0.0 0.00 0.03 0.03 84 1016.7
20260505083934 21 82 0.0 0.0 0.00 0.03 0.03 85 1016.6
20260505083434 22 82 0.0 0.0 0.00 0.03 0.03 84 1016.6
20260505082932 22 82 0.0 0.0 0.00 0.03 0.03 84 1016.5
20260505082433 22 82 0.0 0.0 0.00 0.03 0.03 84 1016.1
20260505082136 22 82 0.0 0.0 0.00 0.03 0.03 84 1016.0
20260505081417 22 82 0.0 0.0 0.00 0.03 0.03 83 1016.1
20260505081106 22 82 0.0 0.0 0.00 0.03 0.03 83 1015.8
20260505080348 22 82 0.0 0.0 0.00 0.03 0.03 83 1015.7
20260505075844 22 82 0.0 0.0 0.00 0.03 0.03 82 1015.8
20260505075345 22 82 0.0 0.0 0.00 0.03 0.03 82 1015.8
20260505074842 22 82 0.0 0.0 0.00 0.03 0.03 82 1015.9
20260505074340 22 82 0.0 0.0 0.00 0.03 0.03 82 1015.8
20260505073838 22 82 0.0 0.0 0.00 0.03 0.03 82 1015.8
20260505073336 22 82 0.0 0.0 0.00 0.03 0.03 82 1015.7
20260505072833 22 82 0.0 3.2 0.00 0.03 0.03 82 1015.7
20260505072332 23 82 0.0 3.2 0.00 0.03 0.03 82 1015.5
20260505071832 23 82 0.0 3.2 0.00 0.03 0.03 82 1015.5
20260505071328 23 82 0.0 3.2 0.00 0.03 0.03 82 1015.4
20260505070826 23 82 0.0 3.2 0.00 0.03 0.03 81 1015.5
20260505070320 23 82 0.0 3.2 0.00 0.03 0.03 81 1015.5
20260505065818 23 82 0.0 4.8 0.00 0.03 0.03 80 1015.3
20260505065316 23 82 1.6 6.4 0.00 0.03 0.03 80 1015.3
20260505064817 23 82 0.0 6.4 0.00 0.03 0.03 80 1015.3
20260505064249 23 83 0.0 8.0 0.00 0.03 0.03 79 1015.2
20260505063956 23 83 0.0 8.0 0.00 0.03 0.03 79 1015.4
20260505063451 23 68 1.6 8.0 0.00 0.03 0.03 78 1015.4
20260505062703 23 68 3.2 8.0 0.00 0.03 0.03 78 1015.5
20260505062145 24 60 1.6 6.4 0.00 0.03 0.03 78 1015.4
20260505061645 24 46 1.6 4.8 0.00 0.03 0.03 77 1015.5
20260505061341 24 46 0.0 4.8 0.00 0.03 0.03 77 1015.4
20260505060558 24 46 1.6 6.4 0.00 0.03 0.03 77 1015.2
20260505055530 24 47 1.6 6.4 0.00 0.03 0.03 76 1015.1
20260505055231 25 47 1.6 6.4 0.00 0.03 0.03 75 1015.0
20260505054510 25 49 1.6 6.4 0.00 0.03 0.03 75 1015.0
20260505054010 25 54 1.6 6.4 0.00 0.03 0.03 74 1015.0
20260505053736 25 51 1.6 6.4 0.00 0.03 0.03 73 1015.1
20260505053007 25 51 3.2 6.4 0.00 0.03 0.03 72 1015.2
20260505052501 25 92 1.6 6.4 0.00 0.03 0.03 71 1015.2
20260505052002 26 92 1.6 6.4 0.00 0.03 0.03 71 1015.2
20260505051502 26 94 1.6 8.0 0.00 0.03 0.03 70 1015.3
20260505051228 26 77 3.2 8.0 0.00 0.03 0.03 70 1015.2